Regional Weather Roundup
Issued by NWS

Home | Current Version | Previous Version | Graphics & Text | Print | Product List | Glossary Off
Versions: 1 2 3 4 5 6 7 8 9 10 11 12 13 14 15 16 17 18 19 20 21 22 23 24 25 26 27 28 29 30 31 32 33 34 35 36 37 38 39 40 41 42 43 44 45 46 47 48 49 50

000
ASUS43 KDTX 250501
RWRMI
MICHIGAN HOURLY REGIONAL WEATHER ROUNDUP
NATIONAL WEATHER SERVICE DETROIT/PONTIAC MI
100 AM EDT TUE APR 25 2017

NOTE: "FAIR" INDICATES FEW OR NO CLOUDS BELOW 12,000 FEET WITH NO
SIGNIFICANT WEATHER AND/OR OBSTRUCTION TO VISIBILITY.

MIZ047>049-052>055-059>063-066>070-074>076-081>083-250600-
SOUTHEAST LOWER MICHIGAN

CITY           SKY/WX    TMP DP  RH WIND       PRES   REMARKS
ADRIAN         MOCLDY    51  46  83 E6        29.87F
ALMA           CLOUDY    46  44  93 E6        29.88F
ANN ARBOR      CLEAR     53  43  68 E7        29.88F
BAD AXE        CLOUDY    48  34  58 SE10G16   29.94F
CARO           CLOUDY    49  39  68 E9        29.91F
DETROIT CITY   CLOUDY    51  41  68 SE14      29.91F
DETROIT        MOCLDY    52  42  69 E7        29.90F
FLINT          PTCLDY    49  41  74 E9        29.90F
GROSSE ILE     CLOUDY    55  44  67 SE14      29.88F
HILLSDALE      CLEAR     48  43  81 E6        29.85F
HOWELL         CLEAR     54  38  54 SE8       29.88F

CITY           SKY/WX    TMP DP  RH WIND       PRES   REMARKS
JACKSON        CLEAR     53  41  63 E9        29.86F
LAMBERTVILLE   CLOUDY    54  49  85 E5        29.87F
LANSING        PTCLDY    57  34  41 SE13      29.86F
LAPEER         FAIR      51  39  65 SE3       29.92S
MASON          CLOUDY    55  41  59 E6        29.88F
MONROE         CLOUDY    53  46  78 SE8G18    29.87F
MT. CLEMENS    PTCLDY    51  42  72 E9        29.90F
PONTIAC        CLOUDY    53  39  59 SE9       29.89S
PORT HOPE        N/A     50  37  61 SE17G25   29.93F
PORT HURON     CLOUDY    48  36  61 E8        29.93F
TRI CITIES     CLOUDY    50  43  77 E9        29.90F
MIDLAND        FAIR      48  41  77 E5        29.88F
TROY           CLOUDY    54  38  54 E12G17    29.92F
SAGINAW HB     PTCLDY    52  37  58 E7        29.89F
$$
MIZ043>046-050>051-056>058-064>065-071>073-077>080-250600-
SOUTHWEST LOWER MICHIGAN

CITY           SKY/WX    TMP DP  RH WIND       PRES   REMARKS
BATTLE CREEK   CLOUDY    56  38  50 SE12      29.83F
BENTON HARBOR  CLEAR     57  32  38 SE8       29.80S
BIG RAPIDS     CLEAR     48  40  74 SE7       29.87S
COLDWATER      PTCLDY    53  43  66 E9        29.84S
FREMONT        FAIR      54  38  54 E5        29.83S
HOLLAND        CLEAR     58  35  42 SE13      29.82S
GRAND RAPIDS   CLEAR     57  36  45 E10       29.83F
IONIA          FAIR      50  42  72 E3        29.84F
KALAMAZOO      CLOUDY    57  36  45 SE6       29.83S
LUDINGTON      CLOUDY    54  41  61 SE9       29.81S
MARSHALL       CLOUDY    54  39  58 E7        29.85F
MOUNT PLEASANT CLOUDY    46  41  83 NE5       29.87F
MUSKEGON       CLEAR     56  34  43 E8        29.82S
SOUTH HAVEN    CLEAR     58  33  38 SE9       29.80F
$$
MIZ016>042-250600-
NORTHERN LOWER MICHIGAN

CITY           SKY/WX    TMP DP  RH WIND       PRES   REMARKS
ALPENA         CLOUDY    41  37  86 E5        29.96S
BEAVER ISLAND  CLOUDY    46  36  68 E13G21    29.89S
BELLAIRE       CLOUDY    51  34  53 CALM      29.87F
CADILLAC       CLEAR     46  38  74 E9        29.88S
CHARLEVOIX     CLOUDY    49  36  60 E9        29.90F
FRANKFORT      CLOUDY    56  38  52 SE9       29.82F
GAYLORD        CLOUDY    44  33  65 SE7       29.90F
GRAYLING       CLEAR     40  34  79 E5        29.91F
HARBOR SPRINGS CLOUDY    44  34  68 E14       29.90F
HOUGHTON LAKE  CLEAR     48  37  65 E9        29.90F
MANISTEE       CLOUDY    55  41  59 E9        29.81F
OSCODA         CLOUDY    49  37  61 S10       29.94S
ROGERS CITY    PTCLDY    42  33  71 SE7       29.96S
TRAVERSE CITY  PTCLDY    53  38  56 VRB6      29.85S
$$
MIZ007>008-015-250600-
EASTERN UPPER MICHIGAN

CITY           SKY/WX    TMP DP  RH WIND       PRES   REMARKS
KINROSS        PTCLDY    43  31  62 SE12      29.94S
MACKINAC ISLAN PTCLDY    43  31  63 E14G21    29.93S
NEWBERRY       CLOUDY    44  32  63 SE10G17   29.89S
S. S. MARIE    PTCLDY    46  31  55 SE8       29.94S
MUNISING         N/A     46  35  65 S7        29.82F
$$
MIZ004>006-011>014-085-250600-
CENTRAL UPPER MICHIGAN

CITY           SKY/WX    TMP DP  RH WIND       PRES   REMARKS
MANISTIQUE     CLOUDY    44  38  78 E14G21    29.85S
ESCANABA       CLOUDY    44  37  76 E6        29.81F
MENOMINEE      PTCLDY    45  38  76 E6        29.80F
SAWYER-GWINN   CLOUDY    43  35  74 SE6       29.81F
$$
MIZ001>003-009>011-084-250600-
WESTERN UPPER MICHIGAN

CITY           SKY/WX    TMP DP  RH WIND       PRES   REMARKS
IRON MOUNTAIN  PTCLDY    41  34  76 CALM      29.79R
HOUGHTON       CLOUDY    44  34  67 E8        29.75S
COPPER HARBOR    N/A     46  35  65 S18G31    29.74F
IRONWOOD       CLOUDY    59  37  44 SE13      29.66F
$$

ABBREVIATIONS USED IN REMARKS
   TC - TEMPERATURE IN CELSIUS
  WCI - WIND CHILL INDEX
   HX - HEAT INDEX
  VSB - VISIBILITY





USA.gov is the U.S. government's official web portal to all federal, state and local government web resources and services.